Regional Weather Roundup
Issued by NWS Goodland, KS

Home | Current Version | Previous Version | Text Only | Print | Product List | Glossary Off
Versions: 1 2 3 4 5 6 7 8 9 10 11 12 13 14 15 16 17 18 19 20 21 22 23 24 25 26 27 28 29 30 31 32 33 34 35 36 37 38 39 40 41 42 43 44 45 46 47 48 49 50

000
ASUS43 KGLD 241808
RWRGLD

GOODLAND FORECAST AREA HOURLY WEATHER ROUNDUP
NATIONAL WEATHER SERVICE GOODLAND KS
1200 PM MDT FRI OCT 24 2014

...OFFICIAL OBSERVATIONS...

CITY           SKY/WX    TMP DP  RH WIND       PRES   REMARKS
GOODLAND KS    MOSUNNY   86  34  15 NW7       30.10S
HILL CITY KS   SUNNY     84  49  29 VRB3      30.02F
IMPERIAL NEB   PTSUNNY   78  36  21 NW5       30.06F
MCCOOK NEB     MOSUNNY   75  42  30 W6        30.03F
AKRON CO       PTSUNNY   73  33  23 W15       30.16S
BURLINGTON CO  MOSUNNY   83  24  11 VRB5      30.13F
LIMON CO       SUNNY     78  22  12 NW10      30.21S
$$

...UNOFFICIAL OBSERVATIONS...

CITY           SKY/WX    TMP DP  RH WIND       PRES   REMARKS
COLBY KS       SUNNY     84  45  24 SW5       30.07F
NORTON KS      SUNNY     81  34  18 W6        30.01F
SHARON SPRINGS   N/A     81  46  28 CALM        N/A
KIT CARSON CO    N/A     83  35  18 CALM        N/A
YUMA CO          N/A     79  31  17 W16         N/A
$$



USA.gov is the U.S. government's official web portal to all federal, state and local government web resources and services.